Location: Roland
(31.1349°N, 85.4372°W)
Time: 14:05:01
(UTC+00:00)

S-56A Canister/Altair - All Passes

Search period start: 23 April 2021 00:00
Search period end: 03 May 2021 00:00
Orbit: 632 x 2500 km, 38.9° (Epoch: 23 April)

Date Brightness Start Highest point End Pass type
(mag) Time Alt. Az. Time Alt. Az. Time Alt. Az.
23 Apr - 00:04:54 10° S 00:12:25 18° SE 00:18:42 10° ESE daylight
23 Apr - 02:06:21 10° SW 02:17:51 53° SSE 02:25:33 10° ENE visible
23 Apr - 04:13:05 10° WSW 04:22:47 67° NNW 04:29:06 10° ENE visible
23 Apr - 06:21:04 10° WNW 06:27:41 39° N 06:32:29 10° ENE night (unlit)
23 Apr - 08:26:57 10° WNW 08:32:16 63° NNE 08:36:39 10° ESE visible
23 Apr - 10:31:58 10° W 10:35:36 24° SW 10:39:16 10° SSE visible
23 Apr - 23:32:30 10° S 23:39:14 15° SE 23:45:05 10° ESE daylight
24 Apr - 01:32:53 10° SW 01:44:46 48° SSE 01:52:56 10° ENE visible
24 Apr - 03:39:19 10° WSW 03:49:54 74° NNW 03:56:41 10° ENE visible
24 Apr - 05:47:34 10° WNW 05:54:55 42° N 06:00:04 10° ENE visible
24 Apr - 07:54:00 10° WNW 07:59:41 57° NNE 08:04:09 10° E visible
24 Apr - 09:59:04 10° W 10:03:08 30° SW 10:07:02 10° SSE visible
24 Apr - 23:00:30 10° SSE 23:06:01 13° SE 23:11:01 10° ESE daylight
25 Apr - 00:59:28 10° SSW 01:11:38 44° SE 01:20:14 10° ENE visible
25 Apr - 03:05:32 10° WSW 03:16:57 81° NNW 03:24:16 10° ENE visible
25 Apr - 05:13:56 10° W 05:22:06 45° N 05:27:39 10° ENE visible
25 Apr - 07:20:55 10° WNW 07:27:03 53° NNE 07:31:39 10° E visible
25 Apr - 09:26:09 10° WNW 09:30:41 37° SW 09:34:47 10° SSE visible
25 Apr - 22:29:20 10° SSE 22:32:46 11° SE 22:36:02 10° ESE daylight
26 Apr - 00:26:07 10° SSW 00:38:26 40° SE 00:47:28 10° ENE visible
26 Apr - 02:31:44 10° WSW 02:43:55 88° NNW 02:51:48 10° ENE visible
26 Apr - 04:40:12 10° W 04:49:13 49° N 04:55:15 10° ENE visible
26 Apr - 06:47:42 10° WNW 06:54:22 50° NNE 06:59:11 10° E night (unlit)
26 Apr - 08:53:12 10° WNW 08:58:14 47° SW 09:02:29 10° SE visible
26 Apr - 23:52:51 10° SSW 00:05:11 37° SE 00:14:33 10° E daylight
27 Apr - 01:57:56 10° WSW 02:10:49 85° SSE 02:19:17 10° ENE visible
27 Apr - 04:06:22 10° W 04:16:18 52° NNW 04:22:49 10° ENE visible
27 Apr - 06:14:21 10° WNW 06:21:38 49° N 06:26:43 10° E visible
27 Apr - 08:20:11 10° WNW 08:25:46 59° SSW 08:30:11 10° SE visible
27 Apr - 23:19:42 10° SSW 23:31:53 34° SE 23:41:32 10° E daylight
28 Apr - 01:24:10 10° SW 01:37:39 79° SSE 01:46:42 10° ENE visible
28 Apr - 03:32:28 10° W 03:43:18 57° NNW 03:50:22 10° ENE visible
28 Apr - 05:40:53 10° WNW 05:48:50 48° N 05:54:15 10° E visible
28 Apr - 07:47:06 10° WNW 07:53:16 72° SSW 07:57:52 10° SE night (unlit)
28 Apr - 22:46:41 10° SSW 22:58:34 30° SE 23:08:22 10° E daylight
29 Apr - 00:50:27 10° SW 01:04:24 73° SSE 01:14:04 10° ENE visible
29 Apr - 02:58:30 10° W 03:10:14 61° NNW 03:17:54 10° ENE visible
29 Apr - 05:07:16 10° WNW 05:15:58 49° N 05:21:47 10° ENE visible
29 Apr - 07:13:55 10° WNW 07:20:41 85° SSW 07:25:32 10° ESE night (unlit)
29 Apr - 09:21:07 10° WSW 09:23:34 14° SW 09:25:51 10° SSW visible
29 Apr - 22:13:49 10° S 22:25:13 27° SE 22:35:00 10° E daylight
30 Apr - 00:16:49 10° SW 00:31:05 68° SSE 00:41:21 10° ENE daylight
30 Apr - 02:24:31 10° W 02:37:05 66° NNW 02:45:23 10° ENE visible
30 Apr - 04:33:32 10° WNW 04:43:02 50° N 04:49:19 10° ENE visible
30 Apr - 06:40:39 10° WNW 06:48:04 85° NNE 06:53:11 10° ESE visible
30 Apr - 08:47:26 10° W 08:51:08 18° SW 08:54:21 10° S night (unlit)
30 Apr - 21:41:09 10° S 21:51:53 24° SE 22:01:27 10° E daylight
30 Apr - 23:43:16 10° SW 23:57:43 62° SSE 00:08:32 10° ENE daylight
01 May - 01:50:32 10° WSW 02:03:52 71° NNW 02:12:49 10° ENE visible
01 May - 03:59:42 10° WNW 04:10:01 51° N 04:16:49 10° ENE visible
01 May - 06:07:17 10° WNW 06:15:23 76° NNE 06:20:48 10° ESE visible
01 May - 08:13:58 10° W 08:18:43 24° SW 08:22:34 10° S night (unlit)
01 May - 21:08:43 10° S 21:18:32 21° SE 21:27:37 10° E daylight
01 May - 23:09:48 10° SW 23:24:18 57° SE 23:35:38 10° ENE daylight
02 May - 01:16:34 10° WSW 01:30:34 76° NNW 01:40:12 10° ENE visible
02 May - 03:25:46 10° WNW 03:36:56 53° N 03:44:18 10° ENE visible
02 May - 05:33:48 10° WNW 05:42:36 70° NNE 05:48:24 10° ESE visible
02 May - 07:40:33 10° WNW 07:46:15 31° SW 07:50:37 10° SSE night (unlit)
02 May - 20:36:37 10° SSE 20:45:13 18° SE 20:53:27 10° E daylight
02 May - 22:36:28 10° SSW 22:50:51 53° SE 23:02:38 10° ENE daylight
